Regional Weather Roundup
Issued by NWS

Home | Current Version | Previous Version | Text Only | Print | Product List | Glossary Off
Versions: 1 2 3 4 5 6 7 8 9 10 11 12 13 14 15 16 17 18 19 20 21 22 23 24 25 26 27 28 29 30 31 32 33 34 35 36 37 38 39 40 41 42 43 44 45 46 47 48 49 50

000
ASUS43 KIND 240100
RWRIN

WEATHER ROUNDUP FOR INDIANA
NATIONAL WEATHER SERVICE INDIANAPOLIS IN
900 PM EDT MON OCT 23 2017

NOTE: "FAIR" INDICATES FEW OR NO CLOUDS BELOW 12,000 FEET WITH NO
SIGNIFICANT WEATHER AND/OR OBSTRUCTIONS TO VISIBILITY.

* - STATION DOES NOT REPORT WEATHER SUCH AS PRECIPITATION OR FOG.

+ - STATION NOT QUALITY CONTROLLED BY THE NATIONAL WEATHER SERVICE.
    USE DATA WITH CAUTION...ESPECIALLY DEWPOINT AND RELATIVE
    HUMIDITY OBSERVATIONS.

INZ001>003-010>013-019-020-240200-
NORTHWEST INDIANA

CITY           SKY/WX    TMP DP  RH WIND       PRES   REMARKS
GARY /AIRPORT/ CLOUDY    52  50  93 W7        29.68S
MICHIGAN CITY+ CLOUDY    52  50  93 W8        29.67S
MONTICELLO +   DRIZZLE   50  49  95 W7        29.70R

$$

LMZ046-743>745-240200-
SOUTHERN LAKE MICHIGAN

STATION/POSITION TIME  TEMP    WIND        PRES    WAVE
                       AIR SEA DIR/SP/G            HT
                 (UTC) (F)     (DEG/KT/KT) (MB)    (FT)
BURNS HARBOR     0040   54     230/ 10/ 14 1005.1S
MICHIGAN CITY    0030   54     270/ 20/ 22   N/A
5NW MICH CITY    0050   54 57  290/ 14/ 19   N/A     5

$$

INZ004-005-014>016-021>024-240200-
NORTH CENTRAL INDIANA

CITY           SKY/WX    TMP DP  RH WIND       PRES   REMARKS
ELKHART        CLOUDY    52  50  93 W14       29.60R
GOSHEN         LGT RAIN  52  49  89 W17       29.61R
PERU/GRISSOM   CLOUDY    50  50 100 W12       29.67R
SOUTH BEND     CLOUDY    52  51  97 W15       29.63R

$$

INZ006>009-017-018-025>027-240200-
NORTHEAST INDIANA

CITY           SKY/WX    TMP DP  RH WIND       PRES   REMARKS
FORT WAYNE     RAIN      51  49  92 W15       29.62R
KENDALLVILLE + RAIN      53  52  97 W13G24    29.58R

$$

INZ028-029-035-036-043>045-051>053-240200-
WEST CENTRAL INDIANA

CITY           SKY/WX    TMP DP  RH WIND       PRES   REMARKS
LAFAYETTE      CLOUDY    50  50 100 W8        29.71R
TERRE HAUTE    CLOUDY    51  49  92 SW7       29.76R

$$

INZ030>032-037>040-046>048-054>057-064-065-240200-
CENTRAL INDIANA

CITY           SKY/WX    TMP DP  RH WIND       PRES   REMARKS
COLUMBUS       CLOUDY    46  45  93 W9        29.76R
GREENWOOD *+   CLOUDY    49  47  90 W5        29.73S
INDIANAPOLIS   CLOUDY    48  46  93 SW7       29.73R
-EAGLE CREEK   CLOUDY    48  45  89 SW3       29.72R
KOKOMO +       CLOUDY    50  48  93 W13       29.69R
MT COMFORT *+  CLOUDY    46  46 100 W7        29.72R
SHELBYVILLE    RAIN      48  44  86 W9        29.73R

$$

INZ033-034-041-042-049-050-058-059-240200-
EAST CENTRAL INDIANA

CITY           SKY/WX    TMP DP  RH WIND       PRES   REMARKS
MUNCIE         LGT RAIN  50  47  89 W10       29.67R
RICHMOND +     LGT RAIN  50  50 100 W16       29.68R

$$

INZ060-061-067>069-081>083-085>088-240200-
SOUTHWEST INDIANA

CITY           SKY/WX    TMP DP  RH WIND       PRES   REMARKS
EVANSVILLE     CLOUDY    52  46  80 S5        29.83R
HUNTINGBURG +  CLOUDY    49  46  90 SW8       29.83R

$$

INZ062-063-066-070>080-084-089>092-240200-
SOUTH CENTRAL AND SOUTHEAST INDIANA

CITY           SKY/WX    TMP DP  RH WIND       PRES   REMARKS
BLOOMINGTON    CLOUDY    49  45  86 W7        29.76R
MADISON *+     CLOUDY    46  45  93 W7G17     29.78R
SEYMOUR +      LGT RAIN  48  45  87 W9        29.77R

$$





USA.gov is the U.S. government's official web portal to all federal, state and local government web resources and services.